NOAA 16 DEB, 41708

Orbit data source: Space-Track

NOAA 16 DEB, 41708 is space debris in SSO originally from a launch on Thu, 21 Sep 2000 UTC launched from the Air Force Western Test Range (AFWTR). Debris objects in space refer to the collection of defunct objects orbiting the Earth. Examples of debris include non-operational satellites, rocket bodies, and fragments generated from explosions, collisions, or faulty payload assembly.

Loading next visibility...
Identifier
41708, 2000-055PN
Orbit
SSO
Country
Flag of USUS
Related business
Manufacturer
Unknown
Mission
Spacecraft
Bus & Motor
Unknown
Mass
Unknown
Launch date (UTC)
2000-09-21 (26 years ago)
Launch vehicle
Unknown
Launch site
Air Force Western Test Range (AFWTR)
Object type
Payload
Rocket body
Debris
Shape & HBR
Unknown shape, 0.1 m
Radar Cross Section
Small (<0.1 m²)

Expand to show TLE details & history
Last TLE update: 11 hours ago

TLE from 11 hours ago
0 NOAA 16 DEB
1 41708U 00055PN  26107.31568559  .00004369  00000-0  12623-2 0  9996
2 41708  98.8636 240.4059 0008549 308.7294  51.3131 14.45092676518175
Epoch: 2026-04-17T07:34Z
TLE epoch observation values (Epoch: 2026-04-17T07:34:35.234Z)
Latitude
-0.00005°
Longitude
-78.69153°
Altitude
740.863 km
Speed
7.486 km/s
True Right ascension
16h 01m 37s
True Declination
0° 00' 00"
Sunlit
Object was in full shadow at epoch
Visualization orbit readout
Latitude
Unknown
Longitude
Unknown
Altitude
Unknown
Speed
Unknown
Apparent Right ascension
Unknown
Apparent Declination
Unknown
Sunlit
N/A
Visualization observer readout
Local Sidereal Time
01:16:31
Azimuth
Unknown
Elevation
Unknown
Doppler factor
Unknown
Orbital elements
Apogee altitude
744.939 km
Perigee altitude
732.77 km
Semi-major axis
7,116.991 km
Eccentricity
0.00085
Inclination
98.8636°
RAAN
240.4059°
Arg. of periapsis
308.7294°
True anomaly
51.38962°
Mean anomaly
51.3131°
Eccentric anomaly
51.35135°
Mean motion
3.61492 °/min
Orbital period
99.59 mins
BSTAR
0.0012623
Loading maneuver chart data...
Computing Atmospheric mass density...
Loading historical data...
Loading historical data...
Loading historical data...
Loading historical data...
Loading historical data...
Loading historical data...
Loading historical data...

Documentation

Showing up to 5 results
|